[[{"header":{"parameterUnit":"m.s-1","parameterCategory":2,"la1":30.2991,"la2":30.254,"lo1":-89.0895,"lo2":-89.0444,"dy":0.0017,"dx":0.0017,"nx":28,"ny":28,"refTime":"2024-04-30T09:00:00:Z","depth":"0","parameterNumber":2,"parameterNumberName":"U-component_of_CURRENTS"},"data":[0,0,0,0,0,0,0,0,0,0,0,0,0,0,0,0,0,0,0,0,0,0,0,0,0,0,0,0,0,0,0,0,0,0,0,0,0,0,0,0,0,0,0,0,0,0,0,0,0,0,0,0,0,0,0,0,0,0,0.312,0.3122,0,0.3231,0.3232,0.3232,0.3199,0.3197,0.3196,0.3194,0.3266,0.3269,0.3272,0,0,0,0,0,0,0,0,0,0,0,0,0,0.2935,0.2938,0.312,0.3122,0.3124,0.3231,0.3232,0.3233,0.3199,0.3197,0.3195,0.3193,0.3265,0.3269,0.3273,0,0,0,0,0,0,0,0,0,0,0,0,0,0.3019,0.2938,0.3119,0.3127,0.3129,0.3231,0.3232,0.3233,0.3199,0.3197,0.3195,0.3192,0.3263,0.3268,0.3273,0.3351,0,0,0.3289,0.3291,0,0,0,0,0,0,0,0,0.3015,0.3025,0.3123,0.3126,0.3129,0.3206,0.3194,0.3273,0.32,0.3163,0.3194,0.3191,0.325,0.3256,0.327,0.3354,0.3357,0.3289,0.3292,0.3294,0.3296,0,0,0,0,0,0,0,0.3009,0.3021,0.3155,0.3126,0.313,0.3145,0.3152,0.3208,0.3211,0.3166,0.3166,0.3193,0.3249,0.3265,0.3271,0.3358,0.3289,0.3293,0.3296,0.3298,0.3504,0.3506,0,0,0,0,0,0,0.3013,0.3015,0.3152,0.3159,0.3075,0.315,0.3159,0.3177,0.3211,0.3217,0.3195,0.3192,0.3258,0.3266,0.3274,0.333,0.3294,0.3299,0.3302,0.3501,0.3504,0.3507,0,0,0,0,0,0,0.3008,0.3023,0.3147,0.3097,0.3115,0.3156,0.3177,0.318,0.32,0.3235,0.3237,0.3212,0.3256,0.3267,0.3324,0.3334,0.3301,0.3306,0.3498,0.3502,0.3506,0.3468,0,0,0,0,0,0,0.3002,0.3021,0.3031,0.3097,0.3118,0.3206,0.318,0.3185,0.3224,0.322,0.3251,0.3255,0.3255,0.3317,0.3329,0.334,0.331,0.3495,0.35,0.3504,0.3466,0.347,0.3473,0,0,0,0,0,0.2995,0.3002,0.303,0.3047,0.3131,0.3209,0.322,0.3236,0.3228,0.3242,0.3262,0.3254,0.3354,0.3323,0.3337,0.335,0.3493,0.3499,0.3504,0.3464,0.3469,0.3473,0,0,0,0,0,0,0.2907,0.3004,0.3034,0.3066,0.3141,0.3206,0.3219,0.3251,0.3281,0.3269,0.3289,0.3296,0.3349,0.3376,0.3341,0.3429,0.3423,0.3431,0.3388,0.3393,0.3396,0.3336,0.3314,0,0,0,0,0,0.2906,0.2948,0.3042,0.3073,0.3104,0.3172,0.3205,0.323,0.3275,0.3284,0.332,0.3355,0.3389,0.3407,0.345,0.3507,0.35,0.3529,0.3532,0.3534,0.35,0.3542,0.3544,0.3525,0.3525,0.3525,0,0,0.2878,0.2944,0.2963,0.3061,0.3108,0.3147,0.3181,0.3235,0.326,0.3292,0.333,0.3376,0.3412,0.3457,0.3484,0.3474,0.3534,0.3541,0.3542,0.3505,0.3547,0.3548,0.3549,0.3529,0.3528,0.3527,0,0,0.2843,0.2906,0.2924,0.2989,0.3085,0.3136,0.3159,0.3247,0.327,0.3343,0.3355,0.3402,0.3487,0.349,0.3504,0.3565,0.3557,0.3602,0.3559,0.3601,0.3601,0.3601,0.3566,0.3564,0.3596,0.3596,0.3596,0,0.2796,0.2841,0.2941,0.2976,0.3014,0.3128,0.3141,0.3199,0.3299,0.3318,0.3348,0.3453,0.3486,0.3505,0.3514,0.3563,0.3569,0.3528,0.3599,0.3599,0.3599,0.3564,0.3562,0.3595,0.3595,0.3595,0.3595,0,0.2776,0.2813,0.2828,0.2911,0.2972,0.3008,0.3111,0.3171,0.3234,0.3291,0.3361,0.3428,0.348,0.3512,0.3522,0.355,0.3544,0.3598,0.3569,0.3598,0.3561,0.3558,0.3593,0.3594,0.3594,0.3594,0,0,0.263,0.2778,0.2772,0.2808,0.2934,0.2978,0.3036,0.3111,0.3141,0.3253,0.3285,0.3355,0.3415,0.3435,0.3484,0.3507,0.3509,0.3545,0.3548,0.3474,0.3551,0.3374,0.3354,0.3588,0.3589,0.3589,0.3511,0,0.2563,0.2604,0.2699,0.2731,0.2761,0.2883,0.293,0.3023,0.3117,0.3193,0.3272,0.3329,0.3383,0.3413,0.3454,0.3511,0.3508,0.3521,0.3565,0.3563,0.3375,0.3348,0.3232,0.3139,0.3508,0.3508,0.3508,0,0.2488,0.2534,0.2546,0.2659,0.2676,0.2711,0.2806,0.2872,0.3003,0.3075,0.3163,0.3256,0.3304,0.3368,0.3436,0.345,0.3479,0.3511,0.3512,0.3348,0.3382,0.3182,0.3121,0.3083,0.3504,0.3504,0.3505,0,0.2346,0.2421,0.2426,0.2462,0.2602,0.2615,0.2683,0.2814,0.2871,0.2996,0.3048,0.3162,0.3205,0.3295,0.3366,0.3415,0.3422,0.3512,0.336,0.3347,0.3249,0.3225,0.3119,0.3529,0.3529,0.3529,0.353,0,0.2252,0.2259,0.2355,0.2367,0.2376,0.2503,0.2537,0.2632,0.2755,0.2809,0.2971,0.302,0.3194,0.3245,0.3328,0.3296,0.3394,0.3303,0.331,0.323,0.3206,0.317,0.3165,0.3526,0.3527,0.3528,0.3528,0,0.2146,0.2199,0.2221,0.2306,0.2326,0.2337,0.2453,0.2491,0.2608,0.2684,0.2714,0.289,0.2945,0.3065,0.3171,0.3189,0.3106,0.3176,0.3015,0.3001,0.281,0.2807,0.253,0.2462,0.2995,0.299,0.2985,0,0.2118,0.211,0.2157,0.2161,0.2202,0.2237,0.2271,0.2401,0.245,0.2595,0.2615,0.269,0.2755,0.2803,0.2845,0.288,0.2889,0.2748,0.2811,0.2716,0.2725,0.2643,0.2605,0.2675,0.2669,0.2664,0.2659,0,0.2069,0.2067,0.2088,0.2081,0.2092,0.2118,0.2168,0.2183,0.2324,0.2375,0.2442,0.2496,0.2536,0.2527,0.2522,0.2551,0.2587,0.2634,0.2626,0.2489,0.2308,0.2275,0.2769,0.2613,0.2618,0.2621,0.2624,0.2625,0.2032,0.2017,0.202,0.2009,0.2014,0.2002,0.1989,0.2044,0.208,0.2145,0.2245,0.2279,0.2307,0.2304,0.2277,0.2166,0.2219,0.2163,0.2172,0.2102,0.1994,0.2304,0.2105,0.2106,0.2108,0.2109,0.211,0,0.1982,0.1965,0.1956,0.1926,0.1888,0.1922,0.1925,0.1899,0.1885,0.1967,0.2007,0.2028,0.198,0.1999,0.1906,0.1785,0.1746,0.1732,0.1678,0.1677,0.2046,0.1996,0.1653,0.1654,0.1654,0.1654,0.1654,0.1654,0.1958,0.1914,0.1893,0.1806,0.1783,0.1708,0.1686,0.1662,0.1694,0.1687,0.1703,0.1754,0.1809,0.1733,0.1607,0.1554,0.1469,0.1301,0.135,0.1726,0.1771,0.1815,0.1768,0.1384,0.1384,0.0938,0.0934,0.0932]},{"header":{"parameterUnit":"m.s-1","parameterCategory":2,"la1":30.2991,"la2":30.254,"lo1":-89.0895,"lo2":-89.0444,"dy":0.0017,"dx":0.0017,"nx":28,"ny":28,"refTime":"2024-04-30T09:00:00:Z","depth":"0","parameterNumber":3,"parameterNumberName":"V-component_of_CURRENTS"},"data":[0,0,0,0,0,0,0,0,0,0,0,0,0,0,0,0,0,0,0,0,0,0,0,0,0,0,0,0,0,0,0,0,0,0,0,0,0,0,0,0,0,0,0,0,0,0,0,0,0,0,0,0,0,0,0,0,0,0,-0.0181,-0.0182,0,-0.0253,-0.0253,-0.0254,-0.0261,-0.0261,-0.026,-0.026,-0.0313,-0.0315,-0.0316,0,0,0,0,0,0,0,0,0,0,0,0,0,-0.009,-0.0091,-0.0181,-0.0183,-0.0184,-0.0252,-0.0253,-0.0254,-0.0261,-0.0261,-0.026,-0.026,-0.0312,-0.0314,-0.0317,0,0,0,0,0,0,0,0,0,0,0,0,0,-0.0139,-0.0092,-0.0181,-0.0198,-0.0201,-0.0252,-0.0253,-0.0254,-0.0261,-0.0261,-0.026,-0.026,-0.0312,-0.0314,-0.0317,-0.0347,0,0,-0.0325,-0.0326,0,0,0,0,0,0,0,0,-0.0136,-0.0142,-0.0194,-0.0197,-0.02,-0.025,-0.0241,-0.0285,-0.0262,-0.0235,-0.026,-0.0259,-0.0293,-0.0297,-0.0308,-0.0349,-0.0351,-0.0325,-0.0327,-0.0328,-0.0329,0,0,0,0,0,0,0,-0.0133,-0.0139,-0.0206,-0.0196,-0.0199,-0.0216,-0.0221,-0.0249,-0.0264,-0.0237,-0.0239,-0.0252,-0.0294,-0.0305,-0.0309,-0.0352,-0.0325,-0.0328,-0.0329,-0.033,-0.0412,-0.0412,0,0,0,0,0,0,-0.013,-0.0136,-0.0204,-0.0209,-0.017,-0.0218,-0.0224,-0.0232,-0.0264,-0.0269,-0.0252,-0.0252,-0.0301,-0.0306,-0.0311,-0.0333,-0.0328,-0.0331,-0.0332,-0.0411,-0.0412,-0.0412,0,0,0,0,0,0,-0.0127,-0.0135,-0.0201,-0.0177,-0.0187,-0.022,-0.0229,-0.0234,-0.0243,-0.0276,-0.028,-0.0257,-0.03,-0.0307,-0.0334,-0.0336,-0.0332,-0.0334,-0.0411,-0.0411,-0.0412,-0.0387,0,0,0,0,0,0,-0.0124,-0.0133,-0.0133,-0.0176,-0.0188,-0.0221,-0.023,-0.0236,-0.0254,-0.0254,-0.0282,-0.0286,-0.03,-0.033,-0.0337,-0.0339,-0.0337,-0.041,-0.0411,-0.0412,-0.0387,-0.0387,-0.0387,0,0,0,0,0,-0.012,-0.0115,-0.0133,-0.0141,-0.0189,-0.0221,-0.0228,-0.0248,-0.0255,-0.0254,-0.0279,-0.0285,-0.0341,-0.0333,-0.0341,-0.0344,-0.0409,-0.0411,-0.0412,-0.0387,-0.0387,-0.0387,0,0,0,0,0,0,-0.0061,-0.0118,-0.0137,-0.0146,-0.018,-0.0224,-0.0224,-0.0248,-0.0269,-0.0266,-0.0296,-0.0302,-0.0325,-0.0343,-0.0333,-0.0371,-0.0375,-0.0378,-0.0354,-0.0354,-0.0354,-0.033,-0.0339,0,0,0,0,0,-0.0054,-0.0071,-0.0125,-0.0129,-0.0145,-0.0188,-0.0203,-0.0222,-0.0251,-0.0259,-0.0287,-0.0314,-0.0338,-0.0351,-0.0374,-0.04,-0.0393,-0.0407,-0.0407,-0.0406,-0.0393,-0.0422,-0.0423,-0.0416,-0.0416,-0.0416,0,0,-0.0031,-0.0066,-0.0073,-0.012,-0.0145,-0.0159,-0.0193,-0.0212,-0.0224,-0.0263,-0.028,-0.0314,-0.0345,-0.0368,-0.038,-0.0382,-0.0394,-0.0408,-0.0407,-0.0394,-0.0423,-0.0424,-0.0424,-0.0417,-0.0417,-0.0417,0,0,0.0011,-0.0025,-0.0023,-0.0054,-0.0099,-0.0132,-0.0138,-0.0188,-0.0206,-0.0241,-0.0267,-0.0303,-0.0345,-0.0368,-0.0385,-0.04,-0.0392,-0.0408,-0.0388,-0.0417,-0.0417,-0.0417,-0.036,-0.0356,-0.0409,-0.0409,-0.0408,0,0.0047,0.0032,-0.0024,-0.0031,-0.0049,-0.0116,-0.0112,-0.0148,-0.0201,-0.0215,-0.0238,-0.031,-0.0343,-0.0369,-0.0376,-0.0398,-0.0384,-0.0385,-0.0415,-0.0415,-0.0416,-0.0358,-0.0353,-0.0407,-0.0408,-0.0408,-0.0408,0,0.0085,0.0072,0.0073,0.0036,0.0011,0.0001,-0.0061,-0.0087,-0.013,-0.0169,-0.0214,-0.0276,-0.0308,-0.0339,-0.0364,-0.0387,-0.0361,-0.0409,-0.041,-0.0415,-0.0353,-0.0348,-0.0406,-0.0406,-0.0407,-0.0407,0,0,0.0168,0.0113,0.0114,0.0108,0.0044,0.0032,0.0005,-0.0036,-0.0036,-0.0121,-0.0122,-0.0213,-0.0249,-0.0271,-0.0318,-0.0361,-0.0351,-0.0384,-0.0386,-0.0314,-0.0345,-0.0278,-0.0266,-0.041,-0.0411,-0.0411,-0.0281,0,0.0218,0.0225,0.0178,0.0186,0.0181,0.0113,0.01,0.0053,0.0003,-0.0017,-0.011,-0.0128,-0.0222,-0.0226,-0.0291,-0.0334,-0.0346,-0.0377,-0.0362,-0.0359,-0.0292,-0.0264,-0.0231,-0.011,-0.0276,-0.0276,-0.0275,0,0.0266,0.0261,0.0282,0.0255,0.0251,0.025,0.0223,0.0203,0.0145,0.0112,0.0051,-0.0007,-0.0066,-0.015,-0.0232,-0.0245,-0.0282,-0.0329,-0.0326,-0.0271,-0.0287,-0.0144,-0.0096,-0.0151,-0.0268,-0.0269,-0.027,0,0.0338,0.033,0.0351,0.034,0.0304,0.0314,0.03,0.0251,0.0252,0.0212,0.0225,0.0118,0.0105,-0.0006,-0.0102,-0.0161,-0.0168,-0.0259,-0.0221,-0.0213,-0.0184,-0.0174,-0.0182,-0.0301,-0.0301,-0.0301,-0.0302,0,0.039,0.0405,0.0394,0.0403,0.0443,0.0396,0.0434,0.0402,0.0391,0.042,0.0312,0.0331,0.0132,0.0095,-0.0026,-0.0074,-0.0098,-0.0186,-0.0185,-0.0168,-0.0158,-0.0207,-0.0257,-0.0296,-0.0297,-0.0298,-0.0299,0,0.0441,0.0434,0.0459,0.0462,0.0473,0.0502,0.0525,0.055,0.0539,0.0584,0.0589,0.0514,0.0469,0.0318,0.0187,0.0072,-0.0017,-0.0015,0.0068,0.0075,0.0017,-0.0033,-0.0,-0.0013,0.0039,0.0041,0.0043,0,0.0459,0.0482,0.0515,0.0546,0.0551,0.0595,0.0626,0.0621,0.0658,0.0703,0.0742,0.0729,0.0718,0.0592,0.0394,0.0262,0.0133,0.0207,0.0065,0.0053,-0.0004,-0.0046,-0.0065,0.0143,0.0145,0.0147,0.0149,0,0.0498,0.0517,0.0542,0.0612,0.0661,0.0713,0.0768,0.0825,0.0844,0.0905,0.0983,0.0993,0.089,0.076,0.059,0.0462,0.0188,0.0248,0.0178,0.0048,0.0055,0.0032,0.0077,0.0168,0.0166,0.0165,0.0163,0.0163,0.0532,0.0564,0.0612,0.0674,0.0737,0.0823,0.0882,0.0958,0.1054,0.1149,0.1163,0.1215,0.1042,0.08,0.0647,0.0405,0.0348,0.0281,0.0225,0.0188,0.0151,0.0293,0.04,0.04,0.0399,0.0399,0.0398,0,0.0567,0.0609,0.067,0.0748,0.0821,0.0848,0.0965,0.1034,0.1165,0.1274,0.1347,0.1339,0.1139,0.0894,0.0573,0.0398,0.0286,0.0296,0.0204,0.0182,0.0267,0.0244,0.039,0.039,0.039,0.039,0.039,0.039,0.059,0.0653,0.0683,0.0804,0.0864,0.097,0.1043,0.1159,0.1262,0.1412,0.1482,0.1513,0.1365,0.0779,0.042,0.033,0.0188,0.0187,0.0115,0.012,0.0112,0.0104,0.0069,0.0176,0.0176,0.0046,0.0045,0.0044]}],[{"header":{"parameterUnit":"m.s-1","parameterCategory":2,"la1":30.2991,"la2":30.254,"lo1":-89.0895,"lo2":-89.0444,"dy":0.0017,"dx":0.0017,"nx":28,"ny":28,"refTime":"2024-04-30T09:00:00:Z","depth":"2","parameterNumber":2,"parameterNumberName":"U-component_of_CURRENTS"},"data":[0,0,0,0,0,0,0,0,0,0,0,0,0,0,0,0,0,0,0,0,0,0,0,0,0,0,0,0,0,0,0,0,0,0,0,0,0,0,0,0,0,0,0,0,0,0,0,0,0,0,0,0,0,0,0,0,0,0,0.2032,0.2032,0,0.2023,0.2023,0.2023,0.2064,0.2065,0.2066,0.2067,0.2043,0.2041,0.204,0,0,0,0,0,0,0,0,0,0,0,0,0,0.2076,0.2076,0.2033,0.2032,0.2032,0.2023,0.2023,0.2023,0.2064,0.2065,0.2066,0.2067,0.2043,0.2041,0.204,0,0,0,0,0,0,0,0,0,0,0,0,0,0.2064,0.2076,0.2033,0.2048,0.2049,0.2023,0.2023,0.2023,0.2064,0.2065,0.2066,0.2068,0.2044,0.2041,0.2039,0.1999,0,0,0.2033,0.2032,0,0,0,0,0,0,0,0,0.2065,0.2063,0.2046,0.2047,0.2048,0.2043,0.2029,0.2013,0.2063,0.2062,0.2067,0.2068,0.2038,0.2036,0.2037,0.1998,0.1997,0.2032,0.2031,0.203,0.203,0,0,0,0,0,0,0,0.2066,0.2064,0.2032,0.2046,0.2047,0.2052,0.2052,0.2027,0.2045,0.2062,0.2064,0.2057,0.2039,0.2039,0.2036,0.1997,0.2032,0.2031,0.2029,0.2028,0.207,0.2073,0,0,0,0,0,0,0.2059,0.2064,0.2032,0.2032,0.2056,0.205,0.2051,0.2046,0.2046,0.2046,0.2056,0.2059,0.2042,0.2039,0.2036,0.2098,0.203,0.2028,0.2027,0.2068,0.2071,0.2073,0,0,0,0,0,0,0.206,0.2056,0.2033,0.2045,0.2042,0.2048,0.2043,0.2045,0.2078,0.2041,0.2042,0.209,0.2043,0.2039,0.2032,0.2093,0.2027,0.2025,0.2065,0.2069,0.2072,0.2151,0,0,0,0,0,0,0.2061,0.2057,0.2066,0.2044,0.2041,0.2036,0.2041,0.2044,0.2068,0.2073,0.2069,0.2066,0.2044,0.2036,0.203,0.2089,0.2023,0.2062,0.2067,0.2071,0.2146,0.2157,0.2167,0,0,0,0,0,0.2063,0.2057,0.2066,0.2063,0.2048,0.2036,0.2036,0.2046,0.2068,0.2082,0.2077,0.2068,0.2063,0.2034,0.2027,0.2087,0.206,0.2065,0.2071,0.2141,0.2155,0.2167,0,0,0,0,0,0,0.2063,0.2059,0.207,0.2059,0.206,0.2042,0.2043,0.2064,0.2073,0.2079,0.2065,0.2061,0.2101,0.2072,0.2041,0.2118,0.2074,0.2078,0.213,0.2142,0.2153,0.2132,0.2022,0,0,0,0,0,0.207,0.2076,0.2067,0.206,0.2058,0.2063,0.2065,0.2076,0.2071,0.208,0.2072,0.208,0.2112,0.2107,0.2115,0.2118,0.209,0.2166,0.2177,0.2186,0.2168,0.2192,0.2202,0.2091,0.2091,0.2091,0,0,0.206,0.2062,0.2062,0.2063,0.2058,0.2061,0.2069,0.2071,0.2097,0.207,0.2093,0.2115,0.2126,0.2157,0.2173,0.2138,0.2203,0.2193,0.22,0.2176,0.2198,0.2209,0.2218,0.2095,0.2094,0.2094,0,0,0.2044,0.2051,0.2057,0.2064,0.2069,0.2068,0.208,0.2079,0.2108,0.212,0.2145,0.2171,0.2188,0.2205,0.2223,0.2286,0.2273,0.2336,0.235,0.2375,0.2384,0.2391,0.2359,0.2363,0.2324,0.2324,0.2324,0,0.2042,0.204,0.2054,0.2064,0.2066,0.2078,0.2084,0.211,0.2115,0.2136,0.2137,0.2204,0.2206,0.227,0.231,0.2308,0.2314,0.2298,0.2387,0.2393,0.2399,0.2365,0.2368,0.2329,0.2328,0.2328,0.2327,0,0.2029,0.2038,0.2032,0.2056,0.2072,0.2064,0.2097,0.212,0.215,0.2177,0.2248,0.2251,0.228,0.2328,0.2336,0.2414,0.2403,0.2411,0.2347,0.2414,0.2375,0.2377,0.2335,0.2334,0.2332,0.2331,0,0,0.1986,0.2019,0.2019,0.2033,0.2065,0.2066,0.2113,0.2149,0.2178,0.2221,0.2265,0.234,0.2351,0.2372,0.2406,0.2434,0.2481,0.2452,0.2451,0.2406,0.2521,0.2444,0.2437,0.2535,0.2536,0.2537,0.2472,0,0.1967,0.198,0.201,0.2022,0.2025,0.2064,0.2103,0.2154,0.2193,0.2233,0.2296,0.2346,0.2374,0.2398,0.2439,0.2477,0.2493,0.2495,0.2473,0.247,0.2383,0.2439,0.2257,0.2181,0.2473,0.2474,0.2474,0,0.1942,0.1958,0.1967,0.2008,0.2012,0.2029,0.2076,0.2118,0.2198,0.2234,0.2295,0.2345,0.2402,0.2419,0.2474,0.2491,0.251,0.2529,0.2527,0.2421,0.2396,0.2165,0.2172,0.2475,0.2475,0.2475,0.2475,0,0.1896,0.1925,0.1929,0.1941,0.199,0.201,0.2041,0.2113,0.2153,0.2234,0.226,0.2338,0.2365,0.2421,0.2459,0.2484,0.2511,0.2527,0.2463,0.2455,0.227,0.2244,0.2564,0.2564,0.2564,0.2564,0.2564,0,0.1858,0.1862,0.1904,0.1905,0.1918,0.1978,0.2003,0.2049,0.212,0.2164,0.2254,0.2289,0.2382,0.2417,0.2454,0.2444,0.2489,0.2457,0.2444,0.2292,0.2271,0.2504,0.2498,0.2561,0.2562,0.2562,0.2563,0,0.1812,0.1833,0.1841,0.1883,0.1896,0.1912,0.1974,0.1996,0.2067,0.2123,0.2154,0.2253,0.2296,0.2353,0.2413,0.2403,0.2416,0.2406,0.2195,0.2159,0.2338,0.2337,0.2306,0.2303,0.2301,0.2299,0.2297,0,0.179,0.1787,0.1817,0.1821,0.1838,0.1868,0.189,0.1963,0.1993,0.2095,0.2118,0.2189,0.2228,0.2252,0.2254,0.225,0.2352,0.207,0.2079,0.2326,0.2317,0.232,0.2323,0.1853,0.1848,0.1843,0.184,0,0.1754,0.1761,0.1771,0.1775,0.1787,0.1803,0.1841,0.1855,0.1945,0.1981,0.2035,0.2074,0.211,0.203,0.2026,0.2013,0.2053,0.1981,0.2298,0.1959,0.1898,0.1889,0.1907,0.1801,0.1805,0.1808,0.181,0.1811,0.1729,0.172,0.1727,0.1723,0.1736,0.1734,0.1719,0.1762,0.1784,0.1819,0.1906,0.1891,0.1901,0.1811,0.1746,0.169,0.1848,0.1765,0.1779,0.1797,0.1769,0.1709,0.1567,0.157,0.1572,0.1574,0.1575,0,0.1687,0.1679,0.1677,0.1658,0.1635,0.1669,0.1677,0.1646,0.1631,0.168,0.1698,0.1557,0.1486,0.1502,0.1358,0.1341,0.1338,0.1282,0.1269,0.1308,0.1342,0.1293,0.0963,0.0962,0.096,0.0958,0,0,0.1667,0.1636,0.1621,0.1557,0.1547,0.1491,0.1477,0.1448,0.1451,0.1408,0.1374,0.1462,0.148,0.1228,0.1172,0.1046,0.1177,0.0999,0.1491,0.1518,0.1551,0.162,0.1586,0,0,0,0,0]},{"header":{"parameterUnit":"m.s-1","parameterCategory":2,"la1":30.2991,"la2":30.254,"lo1":-89.0895,"lo2":-89.0444,"dy":0.0017,"dx":0.0017,"nx":28,"ny":28,"refTime":"2024-04-30T09:00:00:Z","depth":"2","parameterNumber":3,"parameterNumberName":"V-component_of_CURRENTS"},"data":[0,0,0,0,0,0,0,0,0,0,0,0,0,0,0,0,0,0,0,0,0,0,0,0,0,0,0,0,0,0,0,0,0,0,0,0,0,0,0,0,0,0,0,0,0,0,0,0,0,0,0,0,0,0,0,0,0,0,0.0177,0.0177,0,0.0156,0.0156,0.0155,0.0112,0.0111,0.011,0.011,0.0108,0.0108,0.0109,0,0,0,0,0,0,0,0,0,0,0,0,0,0.0158,0.0158,0.0177,0.0177,0.0177,0.0156,0.0156,0.0155,0.0112,0.0111,0.011,0.0109,0.0107,0.0108,0.0109,0,0,0,0,0,0,0,0,0,0,0,0,0,0.0153,0.0159,0.0177,0.0154,0.0152,0.0156,0.0156,0.0155,0.0112,0.0111,0.011,0.0109,0.0107,0.0108,0.0109,0.0137,0,0,0.0112,0.0112,0,0,0,0,0,0,0,0,0.0153,0.0154,0.0157,0.0155,0.0153,0.0137,0.0148,0.015,0.0112,0.0125,0.011,0.0108,0.0121,0.0121,0.0117,0.0137,0.0136,0.0112,0.0113,0.0113,0.0113,0,0,0,0,0,0,0,0.0154,0.0154,0.0167,0.0157,0.0155,0.0137,0.0135,0.0148,0.0129,0.0124,0.0121,0.0122,0.012,0.0116,0.0116,0.0136,0.0112,0.0113,0.0113,0.0114,0.0142,0.0142,0,0,0,0,0,0,0.0162,0.0155,0.0168,0.0166,0.0152,0.0139,0.0136,0.0142,0.0128,0.0125,0.0123,0.012,0.0115,0.0115,0.0116,0.0123,0.0113,0.0114,0.0114,0.0142,0.0142,0.0142,0,0,0,0,0,0,0.0162,0.0164,0.0168,0.0161,0.016,0.0141,0.0147,0.0142,0.0128,0.0127,0.0124,0.0112,0.0114,0.0115,0.0127,0.0124,0.0114,0.0115,0.0141,0.0142,0.0142,0.0154,0,0,0,0,0,0,0.0162,0.0164,0.0165,0.0162,0.0161,0.0176,0.0148,0.0142,0.0131,0.0127,0.0118,0.0117,0.0113,0.0126,0.0128,0.0125,0.0116,0.0141,0.0142,0.0142,0.0153,0.0155,0.0156,0,0,0,0,0,0.0161,0.0173,0.0165,0.0166,0.0165,0.0177,0.0175,0.0156,0.0132,0.0136,0.0127,0.0116,0.0129,0.0128,0.013,0.0127,0.0141,0.0141,0.0142,0.0153,0.0154,0.0156,0,0,0,0,0,0,0.0171,0.017,0.0161,0.0173,0.0175,0.017,0.0173,0.0155,0.0149,0.0142,0.013,0.013,0.0131,0.0134,0.0133,0.0135,0.0129,0.013,0.0137,0.0138,0.0139,0.0153,0.0117,0,0,0,0,0,0.0174,0.0179,0.0179,0.019,0.0194,0.018,0.0178,0.0167,0.0164,0.0158,0.0153,0.0146,0.0137,0.0142,0.014,0.0157,0.0155,0.0153,0.0154,0.0155,0.0167,0.0163,0.0165,0.0143,0.0143,0.0143,0,0,0.0184,0.0182,0.0186,0.0192,0.0191,0.0204,0.0176,0.0181,0.0183,0.0163,0.0168,0.0151,0.0141,0.0147,0.0148,0.015,0.0159,0.0156,0.0156,0.0168,0.0164,0.0166,0.0168,0.0144,0.0144,0.0144,0,0,0.0209,0.0205,0.0217,0.0219,0.022,0.0219,0.0219,0.0216,0.0205,0.0213,0.0185,0.0183,0.0177,0.0175,0.0169,0.0184,0.0159,0.0161,0.0188,0.0183,0.0185,0.0187,0.0182,0.0184,0.0169,0.0169,0.017,0,0.0217,0.0233,0.0224,0.0235,0.0241,0.0227,0.0244,0.0238,0.0236,0.0237,0.0219,0.0203,0.0197,0.0199,0.0192,0.0189,0.017,0.0182,0.0185,0.0187,0.0188,0.0183,0.0185,0.017,0.017,0.017,0.017,0,0.0252,0.026,0.0272,0.028,0.0285,0.0302,0.0297,0.0303,0.0287,0.0276,0.027,0.0259,0.0252,0.0236,0.0216,0.0214,0.0191,0.018,0.0182,0.0191,0.0185,0.0186,0.0171,0.0171,0.0171,0.017,0,0,0.0285,0.0293,0.0297,0.0306,0.0309,0.0323,0.0335,0.0347,0.0359,0.0339,0.035,0.0322,0.0301,0.0294,0.0264,0.0257,0.0247,0.0214,0.0214,0.0212,0.0219,0.0209,0.0209,0.0216,0.0217,0.0217,0.0209,0,0.0316,0.0344,0.0339,0.0372,0.039,0.0383,0.04,0.0402,0.0398,0.0409,0.038,0.0377,0.0325,0.0317,0.0298,0.0263,0.0249,0.0249,0.021,0.021,0.02,0.021,0.022,0.0214,0.021,0.021,0.021,0,0.0351,0.0365,0.04,0.042,0.0429,0.0447,0.0478,0.0488,0.0492,0.0486,0.047,0.0438,0.0424,0.0378,0.0329,0.0319,0.0268,0.0238,0.0236,0.0227,0.0202,0.0205,0.0216,0.0212,0.0211,0.0211,0.0211,0,0.0383,0.0409,0.0439,0.0445,0.0468,0.0487,0.0502,0.0514,0.0534,0.0536,0.0549,0.051,0.0505,0.0438,0.0359,0.0337,0.0301,0.0277,0.0222,0.0221,0.0227,0.0226,0.0241,0.0241,0.0241,0.0241,0.0241,0,0.0417,0.0441,0.0459,0.0477,0.0523,0.0521,0.0571,0.058,0.0602,0.0637,0.0587,0.0605,0.0512,0.0471,0.0387,0.0312,0.0326,0.0235,0.0221,0.023,0.023,0.0227,0.0225,0.0241,0.0241,0.0241,0.0241,0,0.0443,0.0454,0.0492,0.0523,0.0539,0.057,0.0617,0.0654,0.0664,0.0712,0.0714,0.0681,0.0631,0.0536,0.0447,0.0365,0.0293,0.0256,0.0271,0.0259,0.0207,0.0206,0.021,0.021,0.021,0.0209,0.0209,0,0.0457,0.0479,0.0526,0.0556,0.0573,0.062,0.066,0.0685,0.0728,0.0762,0.0792,0.0754,0.0739,0.0606,0.0467,0.0341,0.0301,0.0249,0.0221,0.0219,0.0205,0.0205,0.0205,0.0231,0.0231,0.0231,0.0231,0,0.0483,0.0501,0.0533,0.0593,0.0641,0.0698,0.0755,0.0799,0.0839,0.0879,0.092,0.0911,0.0788,0.0663,0.0477,0.0382,0.0273,0.0245,0.025,0.0235,0.0237,0.0224,0.0224,0.0231,0.0231,0.0231,0.0231,0.0231,0.0501,0.0529,0.0574,0.0632,0.0691,0.0767,0.0819,0.0884,0.0958,0.1016,0.101,0.0995,0.0848,0.0618,0.0453,0.0274,0.0291,0.0212,0.0213,0.0214,0.0215,0.0216,0.0207,0.0207,0.0207,0.0206,0.0206,0,0.052,0.0555,0.0609,0.068,0.0745,0.0776,0.0877,0.093,0.1018,0.1069,0.1099,0.0949,0.0811,0.063,0.038,0.0233,0.0213,0.0165,0.0176,0.0178,0.0179,0.0179,0.0161,0.016,0.0159,0.0158,0,0,0.053,0.0579,0.0608,0.0709,0.0764,0.0855,0.0914,0.0994,0.1053,0.1096,0.1086,0.1071,0.0868,0.0668,0.0467,0.0315,0.0275,0.0277,0.0334,0.0373,0.0376,0.0231,0.0236,0,0,0,0,0]}],[{"header":{"parameterUnit":"m.s-1","parameterCategory":2,"la1":30.2991,"la2":30.254,"lo1":-89.0895,"lo2":-89.0444,"dy":0.0017,"dx":0.0017,"nx":28,"ny":28,"refTime":"2024-04-30T09:00:00:Z","depth":"4","parameterNumber":2,"parameterNumberName":"U-component_of_CURRENTS"},"data":[0,0,0,0,0,0,0,0,0,0,0,0,0,0,0,0,0,0,0,0,0,0,0,0,0,0,0,0,0,0,0,0,0,0,0,0,0,0,0,0,0,0,0,0,0,0,0,0,0,0,0,0,0,0,0,0,0,0,0.1181,0.1181,0,0.1204,0.1204,0.1205,0.1242,0.1243,0.1244,0.1244,0.122,0.1218,0.1217,0,0,0,0,0,0,0,0,0,0,0,0,0,0.1171,0.1171,0.1181,0.1181,0.1182,0.1204,0.1204,0.1205,0.1242,0.1243,0.1244,0.1245,0.122,0.1218,0.1217,0,0,0,0,0,0,0,0,0,0,0,0,0,0.1182,0.1171,0.1181,0.1204,0.1206,0.1204,0.1204,0.1205,0.1242,0.1243,0.1244,0.1245,0.1221,0.1219,0.1216,0.118,0,0,0.121,0.1209,0,0,0,0,0,0,0,0,0.1181,0.1182,0.12,0.1202,0.1205,0.1222,0.1192,0.1194,0.1241,0.1227,0.1244,0.1246,0.1216,0.1214,0.1215,0.1179,0.1178,0.121,0.1209,0.1208,0.1207,0,0,0,0,0,0,0,0.118,0.1181,0.1189,0.12,0.1203,0.1214,0.1217,0.1193,0.1213,0.1228,0.1231,0.1235,0.1217,0.1217,0.1215,0.1177,0.121,0.1208,0.1207,0.1206,0.1218,0.1219,0,0,0,0,0,0,0.1178,0.118,0.1188,0.119,0.1197,0.1213,0.1216,0.1215,0.1214,0.1216,0.1234,0.1237,0.122,0.1217,0.1214,0.126,0.1208,0.1206,0.1205,0.1216,0.1218,0.122,0,0,0,0,0,0,0.1178,0.1178,0.1187,0.1187,0.1189,0.1212,0.121,0.1215,0.1243,0.122,0.122,0.1261,0.1221,0.1217,0.1225,0.1256,0.1205,0.1203,0.1214,0.1217,0.1219,0.1294,0,0,0,0,0,0,0.1177,0.1178,0.1193,0.1187,0.1189,0.1198,0.1209,0.1214,0.1242,0.1247,0.1242,0.124,0.1221,0.1229,0.1223,0.1252,0.1201,0.1212,0.1215,0.1218,0.1289,0.1298,0.1306,0,0,0,0,0,0.1177,0.1188,0.1193,0.1195,0.1202,0.1198,0.1201,0.122,0.1242,0.1251,0.1262,0.1241,0.1244,0.1228,0.1221,0.125,0.1211,0.1215,0.1218,0.1286,0.1297,0.1306,0,0,0,0,0,0,0.1194,0.1192,0.1198,0.1209,0.121,0.1205,0.1227,0.1234,0.125,0.1269,0.125,0.1248,0.1272,0.1248,0.1231,0.1265,0.1228,0.123,0.1282,0.1292,0.13,0.1301,0.12,0,0,0,0,0,0.1202,0.121,0.1204,0.1216,0.1223,0.1229,0.1239,0.1248,0.1254,0.1265,0.1262,0.1268,0.1275,0.1275,0.1271,0.1275,0.1269,0.1294,0.1303,0.131,0.1308,0.1326,0.1336,0.1231,0.1231,0.1231,0,0,0.1211,0.1213,0.1219,0.1221,0.1231,0.1239,0.1239,0.126,0.1274,0.1256,0.1288,0.1295,0.1285,0.1305,0.1313,0.1291,0.1342,0.1314,0.1321,0.1315,0.1331,0.1341,0.135,0.1234,0.1233,0.1233,0,0,0.1225,0.1239,0.125,0.1253,0.1269,0.1268,0.1278,0.1287,0.1305,0.1321,0.1331,0.1356,0.135,0.1358,0.1359,0.1407,0.139,0.1415,0.1451,0.147,0.1478,0.1486,0.1513,0.1522,0.1415,0.1415,0.1415,0,0.1245,0.1248,0.1253,0.1264,0.1274,0.1284,0.1296,0.1309,0.1321,0.1338,0.1342,0.1379,0.1375,0.1406,0.1436,0.1425,0.1438,0.1413,0.1481,0.1487,0.1493,0.1519,0.1528,0.1419,0.1419,0.1418,0.1418,0,0.1254,0.1271,0.1282,0.1296,0.1305,0.1319,0.133,0.1354,0.1378,0.1388,0.1433,0.1438,0.1457,0.1473,0.147,0.1521,0.1518,0.1493,0.1453,0.1508,0.1532,0.154,0.1425,0.1423,0.1422,0.1421,0,0,0.1259,0.1284,0.1291,0.1301,0.1325,0.1327,0.1364,0.1385,0.1416,0.1443,0.1479,0.1516,0.1531,0.1535,0.1542,0.1565,0.1634,0.1558,0.1557,0.1583,0.1693,0.1563,0.1559,0.1627,0.1629,0.163,0.1701,0,0.1269,0.1291,0.1302,0.1326,0.1335,0.136,0.1385,0.1413,0.1443,0.148,0.1511,0.1546,0.155,0.1574,0.1602,0.1624,0.1656,0.1618,0.1637,0.1638,0.1512,0.1563,0.1634,0.1706,0.1708,0.1709,0.171,0,0.1264,0.1281,0.1306,0.1334,0.1343,0.1365,0.141,0.1433,0.1489,0.1518,0.1565,0.1584,0.164,0.1627,0.1694,0.1675,0.1696,0.1708,0.1711,0.1561,0.152,0.1634,0.1724,0.1723,0.1722,0.1721,0.172,0,0.1237,0.1277,0.1296,0.1307,0.1346,0.1374,0.1402,0.1453,0.148,0.1549,0.1581,0.1636,0.1674,0.1706,0.1738,0.1729,0.1801,0.1779,0.1683,0.1676,0.1739,0.173,0.1824,0.1824,0.1824,0.1824,0.1824,0,0.1215,0.1235,0.1293,0.1301,0.1334,0.1369,0.1411,0.1451,0.1511,0.1545,0.1603,0.1633,0.1699,0.1739,0.1759,0.1742,0.1817,0.1696,0.1681,0.1773,0.1766,0.1746,0.1736,0.1827,0.1826,0.1825,0.1825,0,0.1169,0.1208,0.1235,0.1296,0.1318,0.1343,0.1411,0.1437,0.1508,0.1556,0.1582,0.1656,0.1703,0.1748,0.1805,0.1754,0.1756,0.1733,0.1847,0.1836,0.1621,0.1614,0.1631,0.1627,0.1624,0.1621,0.1618,0,0.114,0.1151,0.1226,0.1248,0.1281,0.1329,0.1357,0.1429,0.1457,0.1552,0.1566,0.164,0.1678,0.1655,0.1711,0.1726,0.1705,0.1695,0.164,0.1615,0.16,0.1599,0.1597,0.1613,0.1612,0.1611,0.161,0,0.1089,0.1131,0.1159,0.1206,0.1246,0.1276,0.1327,0.1336,0.1415,0.1495,0.1505,0.1514,0.1559,0.1581,0.1599,0.1608,0.1689,0.1658,0.1665,0.1614,0.1593,0.1581,0.1583,0.1598,0.16,0.1601,0.1602,0,0.1062,0.1071,0.112,0.1147,0.1198,0.1206,0.1239,0.1263,0.1293,0.1392,0.1397,0.1471,0.1548,0.1522,0.1542,0.153,0.1505,0.1447,0.1464,0.1478,0.139,0.1339,0.1256,0,0,0,0,0,0.1025,0.1026,0.1053,0.1074,0.112,0.1148,0.1209,0.1243,0.1321,0.1291,0.1334,0.1364,0.1369,0.141,0.1367,0.1482,0.152,0.1424,0.1465,0.1531,0.1545,0.1451,0,0,0,0,0,0,0.1002,0.1029,0.1028,0.1008,0.1011,0.1046,0.1084,0.1137,0.1121,0.1206,0.1219,0.1276,0.1311,0.1383,0.1341,0.1352,0.1346,0.1471,0.1467,0.1523,0.1535,0.1547,0.1455,0,0,0,0,0]},{"header":{"parameterUnit":"m.s-1","parameterCategory":2,"la1":30.2991,"la2":30.254,"lo1":-89.0895,"lo2":-89.0444,"dy":0.0017,"dx":0.0017,"nx":28,"ny":28,"refTime":"2024-04-30T09:00:00:Z","depth":"4","parameterNumber":3,"parameterNumberName":"V-component_of_CURRENTS"},"data":[0,0,0,0,0,0,0,0,0,0,0,0,0,0,0,0,0,0,0,0,0,0,0,0,0,0,0,0,0,0,0,0,0,0,0,0,0,0,0,0,0,0,0,0,0,0,0,0,0,0,0,0,0,0,0,0,0,0,0.0263,0.0263,0,0.0265,0.0265,0.0265,0.0257,0.0256,0.0256,0.0256,0.0295,0.0297,0.0298,0,0,0,0,0,0,0,0,0,0,0,0,0,0.0236,0.0237,0.0263,0.0263,0.0263,0.0265,0.0265,0.0265,0.0257,0.0256,0.0256,0.0256,0.0295,0.0296,0.0298,0,0,0,0,0,0,0,0,0,0,0,0,0,0.0244,0.0237,0.0263,0.0259,0.0259,0.0265,0.0265,0.0265,0.0257,0.0256,0.0256,0.0256,0.0294,0.0296,0.0298,0.0317,0,0,0.0304,0.0305,0,0,0,0,0,0,0,0,0.0244,0.0245,0.026,0.026,0.0259,0.026,0.027,0.0284,0.0257,0.0258,0.0256,0.0256,0.0287,0.029,0.029,0.0319,0.0321,0.0304,0.0305,0.0306,0.0307,0,0,0,0,0,0,0,0.0243,0.0245,0.0264,0.026,0.026,0.0252,0.0253,0.0272,0.0275,0.0258,0.0257,0.0257,0.0287,0.0288,0.0291,0.0321,0.0304,0.0306,0.0307,0.0308,0.0365,0.0366,0,0,0,0,0,0,0.0244,0.0244,0.0264,0.0264,0.025,0.0253,0.0254,0.026,0.0274,0.0276,0.0258,0.0257,0.0285,0.0289,0.0293,0.0325,0.0306,0.0308,0.0309,0.0365,0.0365,0.0366,0,0,0,0,0,0,0.0244,0.0246,0.0264,0.0254,0.0255,0.0254,0.0261,0.0261,0.0265,0.0274,0.0276,0.0263,0.0285,0.029,0.0308,0.0326,0.0309,0.031,0.0364,0.0365,0.0366,0.0384,0,0,0,0,0,0,0.0243,0.0246,0.0252,0.0254,0.0256,0.0273,0.0261,0.0261,0.0265,0.0265,0.0279,0.0282,0.0285,0.0305,0.031,0.0329,0.0312,0.0364,0.0365,0.0365,0.0383,0.0386,0.0388,0,0,0,0,0,0.0242,0.0251,0.0252,0.0254,0.0264,0.0274,0.0274,0.0271,0.0266,0.0273,0.0276,0.0282,0.0313,0.0307,0.0312,0.0332,0.0364,0.0365,0.0365,0.0382,0.0385,0.0387,0,0,0,0,0,0,0.0242,0.0252,0.0252,0.0264,0.0271,0.0272,0.0277,0.0276,0.0283,0.0282,0.0288,0.0291,0.0313,0.0319,0.0312,0.0349,0.034,0.0342,0.0351,0.0353,0.0355,0.0364,0.0313,0,0,0,0,0,0.0246,0.0256,0.0263,0.0273,0.0277,0.0279,0.0282,0.0282,0.0287,0.029,0.03,0.031,0.0321,0.0333,0.0344,0.0369,0.0358,0.0384,0.0387,0.0388,0.0398,0.0395,0.0397,0.0369,0.0369,0.0369,0,0,0.025,0.0255,0.0261,0.0274,0.0278,0.0292,0.028,0.0289,0.0305,0.0295,0.032,0.0319,0.0328,0.0349,0.0361,0.0358,0.0385,0.0389,0.0391,0.04,0.0396,0.0399,0.0401,0.0369,0.0369,0.0369,0,0,0.0262,0.0267,0.028,0.0287,0.0296,0.0302,0.0307,0.0315,0.0323,0.0344,0.0337,0.0345,0.037,0.0376,0.0383,0.0406,0.0393,0.0409,0.0434,0.043,0.0433,0.0435,0.04,0.0399,0.0415,0.0415,0.0415,0,0.0265,0.0285,0.0286,0.0299,0.031,0.0309,0.033,0.0339,0.0353,0.0366,0.0356,0.0381,0.0385,0.041,0.0413,0.0413,0.0395,0.0424,0.0433,0.0435,0.0437,0.0401,0.04,0.0416,0.0416,0.0415,0.0415,0,0.0288,0.0304,0.0312,0.0333,0.0345,0.0361,0.0376,0.0392,0.04,0.0408,0.0431,0.0428,0.0441,0.0444,0.0436,0.0455,0.0431,0.0432,0.0427,0.0441,0.0402,0.04,0.0417,0.0417,0.0416,0.0416,0,0,0.0298,0.0324,0.0329,0.0347,0.0366,0.0381,0.0411,0.0441,0.0462,0.0471,0.0496,0.0505,0.0494,0.05,0.0489,0.0488,0.0472,0.0467,0.0466,0.0431,0.0438,0.0405,0.04,0.0473,0.0474,0.0474,0.0397,0,0.032,0.0352,0.0362,0.0402,0.0423,0.0435,0.0464,0.0488,0.0504,0.0526,0.0524,0.054,0.0519,0.0519,0.0515,0.0487,0.0472,0.0492,0.0431,0.0429,0.0398,0.0399,0.0475,0.0396,0.0395,0.0395,0.0395,0,0.0343,0.0364,0.0403,0.0443,0.0455,0.0479,0.0526,0.0551,0.0577,0.0586,0.0593,0.0584,0.0581,0.056,0.0519,0.053,0.0486,0.046,0.0457,0.0424,0.0394,0.0384,0.0391,0.0391,0.0392,0.0392,0.0392,0,0.0355,0.0395,0.0431,0.0443,0.0485,0.0512,0.0538,0.0571,0.06,0.062,0.0631,0.0623,0.0615,0.0576,0.0512,0.0515,0.0456,0.0453,0.0378,0.0374,0.0417,0.0416,0.0423,0.0423,0.0423,0.0423,0.0424,0,0.0375,0.0404,0.0441,0.0461,0.0511,0.0532,0.0585,0.0607,0.0638,0.067,0.0658,0.0666,0.062,0.0579,0.052,0.0436,0.0457,0.0381,0.036,0.0423,0.0423,0.0414,0.0414,0.042,0.0421,0.0422,0.0422,0,0.0382,0.0405,0.0449,0.0498,0.0518,0.0554,0.0614,0.0648,0.067,0.0706,0.0711,0.0695,0.064,0.0576,0.0502,0.0442,0.0371,0.0334,0.0384,0.0367,0.0283,0.0285,0.0244,0.0243,0.0241,0.024,0.0239,0,0.0386,0.0409,0.0472,0.0502,0.0527,0.0581,0.0621,0.0663,0.0696,0.0721,0.0735,0.0696,0.0672,0.0534,0.0467,0.0343,0.0327,0.0273,0.0301,0.0286,0.0269,0.0273,0.0277,0.0237,0.0237,0.0236,0.0236,0,0.0393,0.0418,0.0453,0.0513,0.0561,0.0618,0.0673,0.0696,0.074,0.0759,0.0746,0.0684,0.0616,0.0523,0.0421,0.0337,0.0304,0.0258,0.0261,0.0287,0.0276,0.0262,0.0267,0.0231,0.0232,0.0232,0.0233,0,0.0396,0.0419,0.0465,0.0519,0.058,0.0635,0.0668,0.0703,0.0735,0.0757,0.0749,0.0685,0.0655,0.0518,0.043,0.034,0.032,0.0284,0.0285,0.0289,0.033,0.0325,0.0278,0,0,0,0,0,0.0393,0.0419,0.0467,0.0526,0.0587,0.0626,0.0695,0.0723,0.076,0.075,0.075,0.0687,0.0558,0.051,0.0413,0.0402,0.0302,0.0283,0.026,0.0205,0.021,0.0249,0,0,0,0,0,0,0.0391,0.0433,0.0459,0.0523,0.0561,0.0631,0.0678,0.0706,0.0702,0.0722,0.0659,0.064,0.0522,0.0607,0.0402,0.0378,0.0344,0.0233,0.023,0.0202,0.0207,0.0211,0.0253,0,0,0,0,0]}]]